Погода в Ермакове

Россия / Ярославская область     58°36′46″N   38°41′39″E
темп.,
°C
ветер,
м/с
пор.,
м/с
влажн.,
%
обл.,
%
осадки,
мм/ч
давл.,
гПа
погр.,
м
13 мая, чт
чт1300:00+9ю229422 0.2 102120
03:00+9в559710 0.2 102018
06:00+9вюв569843 0.0 102039
09:00+10ююв459120 0.0 102071
12:00+9ююз4596100 0.1 102086
15:00+9всв349631 0.1 101864
18:00+11вюв2283100 0.4 101528
21:00+7зюз11100100 8.4 101615
14 мая, пт
пт1400:00+7ююв33100100 0.1 101616
03:00+5ююв4410094 0.1 101729
06:00+5ююв33100100 0.0 101726
09:00+7ююв339997 0.1 101831
12:00+8ю2395100 0.0 101889
15:00+10ю1382100 0.0 101682
18:00+12юв557937 0.2 101545
21:00+12юв449114 2.3 101425
15 мая, сб
сб1500:00+10юв66100100 1.4 101348
03:00+9вюв56100100 3.6 101147
06:00+9вюв5610091 0.1 101140
09:00+9ююв5699100 0.3 101057
12:00+11ю6887100 0.0 100991
15:00+12юв6892100 0.6 100786
18:00+10ю799997 2.6 100673
21:00+9ю7109743 4.4 100763
16 мая, вс
вс1600:00+8ююз7119610 0.0 100880
03:00+7ююз7109954 0.0 100973
06:00+7ююз5810085 0.0 101157
09:00+7юз349876 0.0 101238
12:00+7в019777 0.0 101372
15:00+8ссз1197100 3.4 101275
18:00+7юз1110098 3.4 101320
21:00+7зюз1110094 3.4 101411
17 мая, пн
пн1700:00+6ююз119994 0.1 101510
03:00+6юв1110094 0.2 101710
06:00+6юв2210094 0.1 101814
09:00+9юв2297100 0.1 101839
12:00+10в1287100 0.0 101884
15:00+12в1278100 0.0 1017101
18:00+14юв4576100 0.0 101638
21:00+13в558862 0.0 101622